Flag for Switzerland Weather past 2 weeks in Aarau, Aargau, Switzerland

Now
75 °F

Mild.


Feels Like: 78 °F
Forecast: 46 / 76 °F
Wind: 3 mph from Northeast

Location: Wynau

Current Time: Sep 16, 2014 at 4:35:39 PM

Latest Report: Sep 16, 2014 at 3:00 PM


Visibility: N/A

Pressure: 29.90 "Hg

Humidity: 53%

Dew point: 57 °F

Location of AarauLocation

Historic Weather in Aarau — Graph

°F

Aarau temperature yesterday

Maximum temperature yesterday: 75 °F (at 4:00 PM)
Minimum temperature yesterday: 50 °F (at 5:00 AM)
Average temperature yesterday: 61 °F

Past Weeks' High & Low Weather Summary

 TemperatureHumidityPressure
High81 °F (Sep 7, 5:00 PM)100% (Sep 2, 3:00 AM)30.16 "Hg (Sep 2, 3:00 AM)
Low47 °F (Sep 12, 6:00 AM)44% (Sep 7, 5:00 PM)29.83 "Hg (Sep 6, 4:00 PM)
Average61 °F81%30.01 "Hg
* Reported Sep 1 3:00 PM — Sep 16 3:00 PM, Aarau, Weather by CustomWeather, © 2014

Note: Actual official high and low records may vary slightly from our data, if they occured in-between our weather recording intervals... More about our weather records

Advertising

Aarau weather history for previous 24 hours

 ConditionsComfort  
Time TempWeatherWind HumidityBarometerVisibility
3:00 PM
Sep 16
75 °FMild.3 mph53%29.90 "HgN/A
2:00 PM74 °FMild.2 mph58%29.91 "HgN/A
1:00 PM72 °FMild.2 mph60%29.93 "HgN/A
12:00 PM69 °FMild.2 mph60%29.96 "HgN/A
11:00 AM65 °FMild.1 mph70%29.98 "HgN/A
10:00 AM61 °FCool.1 mph78%30.00 "HgN/A
9:00 AM56 °FCool.1 mph91%30.02 "HgN/A
8:00 AM53 °FCool.No wind96%30.02 "HgN/A
7:00 AM53 °FCool.No wind96%30.01 "HgN/A
6:00 AM53 °FCool.1 mph98%30.01 "HgN/A
5:00 AM53 °FCool.1 mph97%30.01 "HgN/A
4:00 AM55 °FCool.1 mph97%30.00 "HgN/A
3:00 AM56 °FCool.1 mph98%29.99 "HgN/A
2:00 AM56 °FCool.1 mph99%29.99 "HgN/A
1:00 AM59 °FCool.No wind97%29.98 "HgN/A
12:00 AM59 °FCool.1 mph97%29.98 "HgN/A
11:00 PM
Sep 15
62 °FCool.2 mph93%29.97 "HgN/A
10:00 PM61 °FCool.1 mph93%29.96 "HgN/A
9:00 PM62 °FCool.1 mph92%29.96 "HgN/A
8:00 PM63 °FMild.1 mph87%29.93 "HgN/A
7:00 PM67 °FMild.2 mph80%29.91 "HgN/A
6:00 PM74 °FMild.3 mph57%29.89 "HgN/A
5:00 PM74 °FMild.2 mph58%29.90 "HgN/A
4:00 PM75 °FMild.3 mph58%29.90 "HgN/A
Weather by CustomWeather, © 2014

See weather overviewHow to use our weather pages